Location: Głuchołazy
(50.3169°N, 17.3829°E)
Time: 16:38:01
(UTC+01:00)

ISS - Visible Passes

Search period start: 20 November 2017 00:00
Search period end: 30 November 2017 00:00
Orbit: 402 x 407 km, 51.6° (Epoch: 21 November)

Date Brightness Start Highest point End Pass type
(mag) Time Alt. Az. Time Alt. Az. Time Alt. Az.
28 Nov -1.6 18:16:21 10° SSW 18:17:35 18° S 18:17:35 18° S visible
29 Nov -1.9 17:24:44 10° S 17:26:57 17° SE 17:27:28 17° SE visible
29 Nov -0.6 18:59:43 10° WSW 19:00:07 13° WSW 19:00:07 13° WSW visible
